Time,TemperatureF,DewpointF,PressureIn,WindDirection,WindDirectionDegrees,WindSpeedMPH,WindSpeedGustMPH,Humidity,HourlyPrecipIn,Conditions,Clouds,dailyrainin,SoftwareType,DateUTC
2013-02-25 00:00:00,30.8,29.8,29.85,West,269,0.0,0.0,96,0.00,,---,0.00,VWS V14.01,2013-02-25 05:00:00,
2013-02-25 00:01:00,30.8,29.8,29.85,West,269,0.0,0.0,96,0.00,,---,0.00,VWS V14.01,2013-02-25 05:01:00,
2013-02-25 00:05:00,30.8,29.8,29.85,WNW,286,0.0,0.0,96,0.00,,---,0.00,VWS V14.01,2013-02-25 05:05:00,
2013-02-25 00:06:00,30.7,29.7,29.85,WNW,286,0.0,0.0,96,0.00,,---,0.00,VWS V14.01,2013-02-25 05:06:00,
2013-02-25 00:07:00,30.7,29.7,29.85,WNW,285,0.0,0.0,96,0.00,,---,0.00,VWS V14.01,2013-02-25 05:07:00,
2013-02-25 00:10:00,30.7,29.7,29.85,WNW,286,0.0,0.0,96,0.00,,---,0.00,VWS V14.01,2013-02-25 05:10:00,
2013-02-25 00:12:00,30.7,29.7,29.86,WNW,286,0.0,0.0,96,0.00,,---,0.00,VWS V14.01,2013-02-25 05:12:00,
2013-02-25 00:15:00,30.7,29.4,29.86,WNW,286,0.0,0.0,95,0.00,,---,0.00,VWS V14.01,2013-02-25 05:15:00,
2013-02-25 00:17:00,30.6,29.3,29.86,WNW,286,0.0,0.0,95,0.00,,---,0.00,VWS V14.01,2013-02-25 05:17:00,
2013-02-25 00:20:00,30.6,29.3,29.86,WNW,286,0.0,0.0,95,0.00,,---,0.00,VWS V14.01,2013-02-25 05:20:00,
2013-02-25 00:22:00,30.6,29.3,29.86,WNW,286,0.0,0.0,95,0.00,,---,0.00,VWS V14.01,2013-02-25 05:22:00,
2013-02-25 00:25:00,30.6,29.3,29.86,WNW,286,0.0,0.0,95,0.00,,---,0.00,VWS V14.01,2013-02-25 05:25:00,
2013-02-25 00:27:00,30.5,29.2,29.86,NW,305,0.0,0.0,95,0.00,,---,0.00,VWS V14.01,2013-02-25 05:27:00,
2013-02-25 00:30:00,30.5,29.2,29.86,NW,305,0.0,0.0,95,0.00,,---,0.00,VWS V14.01,2013-02-25 05:30:00,
2013-02-25 00:32:00,30.5,29.2,29.86,NW,325,0.0,0.0,95,0.00,,---,0.00,VWS V14.01,2013-02-25 05:32:00,
2013-02-25 00:35:00,30.5,29.2,29.86,WNW,303,0.0,0.0,95,0.00,,---,0.00,VWS V14.01,2013-02-25 05:35:00,
2013-02-25 00:37:00,30.4,29.1,29.86,North,355,0.0,0.0,95,0.00,,---,0.00,VWS V14.01,2013-02-25 05:37:00,
2013-02-25 00:40:00,30.4,29.1,29.86,North,355,0.0,0.0,95,0.00,,---,0.00,VWS V14.01,2013-02-25 05:40:00,
2013-02-25 00:42:00,30.4,29.1,29.86,NNW,329,0.0,0.0,95,0.00,,---,0.00,VWS V14.01,2013-02-25 05:42:00,
2013-02-25 00:45:00,30.4,29.1,29.86,NW,304,0.0,0.0,95,0.00,,---,0.00,VWS V14.01,2013-02-25 05:45:00,
2013-02-25 00:47:00,30.4,29.1,29.86,WNW,302,0.0,0.0,95,0.00,,---,0.00,VWS V14.01,2013-02-25 05:47:00,
2013-02-25 00:50:00,30.3,29.0,29.86,WNW,302,0.0,0.0,95,0.00,,---,0.00,VWS V14.01,2013-02-25 05:50:00,
2013-02-25 00:52:00,30.3,29.0,29.87,WNW,302,0.0,0.0,95,0.00,,---,0.00,VWS V14.01,2013-02-25 05:52:00,
2013-02-25 00:55:00,30.3,29.0,29.87,WNW,302,0.0,0.0,95,0.00,,---,0.00,VWS V14.01,2013-02-25 05:55:00,
2013-02-25 00:57:00,30.3,29.0,29.87,WNW,302,0.0,0.0,95,0.00,,---,0.00,VWS V14.01,2013-02-25 05:57:00,
2013-02-25 01:00:00,30.3,29.0,29.87,WNW,302,0.0,0.0,95,0.00,,---,0.00,VWS V14.01,2013-02-25 06:00:00,
2013-02-25 01:03:00,30.3,29.0,29.87,WNW,302,0.0,0.0,95,0.00,,---,0.00,VWS V14.01,2013-02-25 06:03:00,
2013-02-25 01:05:00,30.3,29.0,29.87,WNW,302,0.0,0.0,95,0.00,,---,0.00,VWS V14.01,2013-02-25 06:05:00,
2013-02-25 01:08:00,30.3,29.0,29.88,WNW,302,0.0,0.0,95,0.00,,---,0.00,VWS V14.01,2013-02-25 06:08:00,
2013-02-25 01:10:00,30.2,28.9,29.88,WNW,302,0.0,0.0,95,0.00,,---,0.00,VWS V14.01,2013-02-25 06:10:00,
2013-02-25 01:13:00,30.2,28.9,29.88,WNW,302,0.0,0.0,95,0.00,,---,0.00,VWS V14.01,2013-02-25 06:13:00,
2013-02-25 01:15:00,30.2,28.9,29.88,WNW,302,0.0,0.0,95,0.00,,---,0.00,VWS V14.01,2013-02-25 06:15:00,
2013-02-25 01:18:00,30.2,28.9,29.88,WNW,302,0.0,0.0,95,0.00,,---,0.00,VWS V14.01,2013-02-25 06:18:00,
2013-02-25 01:20:00,30.2,28.9,29.88,WNW,302,0.0,0.0,95,0.00,,---,0.00,VWS V14.01,2013-02-25 06:20:00,
2013-02-25 01:23:00,30.1,28.8,29.88,WNW,302,0.0,0.0,95,0.00,,---,0.00,VWS V14.01,2013-02-25 06:23:00,
2013-02-25 01:25:00,30.2,28.9,29.88,WNW,302,0.0,0.0,95,0.00,,---,0.00,VWS V14.01,2013-02-25 06:25:00,
2013-02-25 01:28:00,30.1,28.8,29.89,WNW,302,0.0,0.0,95,0.00,,---,0.00,VWS V14.01,2013-02-25 06:28:00,
2013-02-25 01:30:00,30.1,28.8,29.89,WNW,302,0.0,0.0,95,0.00,,---,0.00,VWS V14.01,2013-02-25 06:30:00,
2013-02-25 01:33:00,30.1,28.8,29.89,WNW,302,0.0,0.0,95,0.00,,---,0.00,VWS V14.01,2013-02-25 06:33:00,
2013-02-25 01:35:00,30.1,28.8,29.89,WNW,302,0.0,0.0,95,0.00,,---,0.00,VWS V14.01,2013-02-25 06:35:00,
2013-02-25 01:38:00,30.1,28.8,29.89,WNW,302,0.0,0.0,95,0.00,,---,0.00,VWS V14.01,2013-02-25 06:38:00,
2013-02-25 01:40:00,30.1,28.8,29.89,WNW,302,0.0,0.0,95,0.00,,---,0.00,VWS V14.01,2013-02-25 06:40:00,
2013-02-25 01:43:00,30.1,28.8,29.89,WNW,302,0.0,0.0,95,0.00,,---,0.00,VWS V14.01,2013-02-25 06:43:00,
2013-02-25 01:45:00,30.1,28.8,29.89,WNW,302,0.0,0.0,95,0.00,,---,0.00,VWS V14.01,2013-02-25 06:45:00,
2013-02-25 01:48:00,30.2,28.9,29.89,WNW,302,0.0,0.0,95,0.00,,---,0.00,VWS V14.01,2013-02-25 06:48:00,
2013-02-25 01:50:00,30.2,28.9,29.89,WNW,302,0.0,0.0,95,0.00,,---,0.00,VWS V14.01,2013-02-25 06:50:00,
2013-02-25 01:53:00,30.2,28.9,29.89,WNW,302,0.0,0.0,95,0.00,,---,0.00,VWS V14.01,2013-02-25 06:53:00,
2013-02-25 01:55:00,30.2,28.9,29.89,WNW,302,0.0,0.0,95,0.00,,---,0.00,VWS V14.01,2013-02-25 06:55:00,
2013-02-25 01:58:00,30.2,28.9,29.89,WNW,302,0.0,0.0,95,0.00,,---,0.00,VWS V14.01,2013-02-25 06:58:00,
2013-02-25 02:00:00,30.3,29.0,29.89,WNW,302,0.0,0.0,95,0.00,,---,0.00,VWS V14.01,2013-02-25 07:00:00,
2013-02-25 02:03:00,30.2,28.9,29.89,WNW,302,0.0,0.0,95,0.00,,---,0.00,VWS V14.01,2013-02-25 07:03:00,
2013-02-25 02:05:00,30.2,28.9,29.89,WNW,302,0.0,0.0,95,0.00,,---,0.00,VWS V14.01,2013-02-25 07:05:00,
2013-02-25 02:08:00,30.2,28.9,29.89,WNW,302,0.0,0.0,95,0.00,,---,0.00,VWS V14.01,2013-02-25 07:08:00,
2013-02-25 02:10:00,30.2,28.9,29.89,WNW,302,0.0,0.0,95,0.00,,---,0.00,VWS V14.01,2013-02-25 07:10:00,
2013-02-25 02:13:00,30.2,28.9,29.89,WNW,302,0.0,0.0,95,0.00,,---,0.00,VWS V14.01,2013-02-25 07:13:00,
2013-02-25 02:15:00,30.2,28.9,29.89,WNW,302,0.0,0.0,95,0.00,,---,0.00,VWS V14.01,2013-02-25 07:15:00,
2013-02-25 02:18:00,30.2,28.9,29.89,WNW,302,0.0,0.0,95,0.00,,---,0.00,VWS V14.01,2013-02-25 07:18:00,
2013-02-25 02:20:00,30.2,28.9,29.89,WNW,302,0.0,0.0,95,0.00,,---,0.00,VWS V14.01,2013-02-25 07:20:00,
2013-02-25 02:23:00,30.2,28.9,29.89,WNW,302,0.0,0.0,95,0.00,,---,0.00,VWS V14.01,2013-02-25 07:23:00,
2013-02-25 02:25:00,30.2,28.9,29.89,WNW,302,0.0,0.0,95,0.00,,---,0.00,VWS V14.01,2013-02-25 07:25:00,
2013-02-25 02:28:00,30.2,28.9,29.90,WNW,302,0.0,0.0,95,0.00,,---,0.00,VWS V14.01,2013-02-25 07:28:00,
2013-02-25 02:30:00,30.1,28.8,29.90,WNW,302,0.0,0.0,95,0.00,,---,0.00,VWS V14.01,2013-02-25 07:30:00,
2013-02-25 02:33:00,30.1,28.8,29.90,WNW,302,0.0,0.0,95,0.00,,---,0.00,VWS V14.01,2013-02-25 07:33:00,
2013-02-25 02:35:00,30.1,28.8,29.90,WNW,302,0.0,0.0,95,0.00,,---,0.00,VWS V14.01,2013-02-25 07:35:00,
2013-02-25 02:38:00,30.2,28.9,29.89,WNW,302,0.0,0.0,95,0.00,,---,0.00,VWS V14.01,2013-02-25 07:38:00,
2013-02-25 02:40:00,30.2,28.9,29.89,WNW,302,0.0,0.0,95,0.00,,---,0.00,VWS V14.01,2013-02-25 07:40:00,
2013-02-25 02:43:00,30.1,28.8,29.89,WNW,302,0.0,0.0,95,0.00,,---,0.00,VWS V14.01,2013-02-25 07:43:00,
2013-02-25 02:45:00,30.1,28.8,29.89,WNW,302,0.0,0.0,95,0.00,,---,0.00,VWS V14.01,2013-02-25 07:45:00,
2013-02-25 02:49:00,30.1,28.8,29.90,WNW,302,0.0,0.0,95,0.00,,---,0.00,VWS V14.01,2013-02-25 07:49:00,
2013-02-25 02:50:00,30.1,28.8,29.90,WNW,302,0.0,0.0,95,0.00,,---,0.00,VWS V14.01,2013-02-25 07:50:00,
2013-02-25 02:54:00,30.2,28.9,29.90,WNW,302,0.0,0.0,95,0.00,,---,0.00,VWS V14.01,2013-02-25 07:54:00,
2013-02-25 02:55:00,30.2,28.9,29.90,WNW,302,0.0,0.0,95,0.00,,---,0.00,VWS V14.01,2013-02-25 07:55:00,
2013-02-25 02:59:00,30.2,28.9,29.89,WNW,302,0.0,0.0,95,0.00,,---,0.00,VWS V14.01,2013-02-25 07:59:00,
2013-02-25 03:00:00,30.2,28.9,29.89,WNW,302,0.0,0.0,95,0.00,,---,0.00,VWS V14.01,2013-02-25 08:00:00,
2013-02-25 03:04:00,30.2,28.9,29.89,WNW,302,0.0,0.0,95,0.00,,---,0.00,VWS V14.01,2013-02-25 08:04:00,
2013-02-25 03:05:00,30.2,28.9,29.89,WNW,302,0.0,0.0,95,0.00,,---,0.00,VWS V14.01,2013-02-25 08:05:00,
2013-02-25 03:09:00,30.2,28.9,29.90,WNW,302,0.0,0.0,95,0.00,,---,0.00,VWS V14.01,2013-02-25 08:09:00,
2013-02-25 03:10:00,30.2,28.9,29.90,WNW,302,0.0,0.0,95,0.00,,---,0.00,VWS V14.01,2013-02-25 08:10:00,
2013-02-25 03:14:00,30.2,28.9,29.90,WNW,302,0.0,0.0,95,0.00,,---,0.00,VWS V14.01,2013-02-25 08:14:00,
2013-02-25 03:15:00,30.2,28.9,29.90,WNW,302,0.0,0.0,95,0.00,,---,0.00,VWS V14.01,2013-02-25 08:15:00,
2013-02-25 03:19:00,30.3,29.0,29.90,WNW,302,0.0,0.0,95,0.00,,---,0.00,VWS V14.01,2013-02-25 08:19:00,
2013-02-25 03:20:00,30.2,28.9,29.90,WNW,302,0.0,0.0,95,0.00,,---,0.00,VWS V14.01,2013-02-25 08:20:00,
2013-02-25 03:24:00,30.3,29.0,29.90,WNW,302,0.0,0.0,95,0.00,,---,0.00,VWS V14.01,2013-02-25 08:24:00,
2013-02-25 03:25:00,30.3,29.0,29.90,WNW,302,0.0,0.0,95,0.00,,---,0.00,VWS V14.01,2013-02-25 08:25:00,
2013-02-25 03:29:00,30.3,29.0,29.90,WNW,302,0.0,0.0,95,0.00,,---,0.00,VWS V14.01,2013-02-25 08:29:00,
2013-02-25 03:30:00,30.3,29.0,29.90,WNW,302,0.0,0.0,95,0.00,,---,0.00,VWS V14.01,2013-02-25 08:30:00,
2013-02-25 03:34:00,30.3,29.0,29.91,WNW,302,0.0,0.0,95,0.00,,---,0.00,VWS V14.01,2013-02-25 08:34:00,
2013-02-25 03:35:00,30.3,29.0,29.90,WNW,302,0.0,0.0,95,0.00,,---,0.00,VWS V14.01,2013-02-25 08:35:00,
2013-02-25 03:39:00,30.3,29.0,29.91,WNW,302,0.0,0.0,95,0.00,,---,0.00,VWS V14.01,2013-02-25 08:39:00,
2013-02-25 03:40:00,30.3,29.0,29.91,WNW,302,0.0,0.0,95,0.00,,---,0.00,VWS V14.01,2013-02-25 08:40:00,
2013-02-25 03:44:00,30.3,29.0,29.91,WNW,302,0.0,0.0,95,0.00,,---,0.00,VWS V14.01,2013-02-25 08:44:00,
2013-02-25 03:45:00,30.3,29.0,29.91,WNW,302,0.0,0.0,95,0.00,,---,0.00,VWS V14.01,2013-02-25 08:45:00,
2013-02-25 03:49:00,30.3,29.0,29.91,WNW,302,0.0,0.0,95,0.00,,---,0.00,VWS V14.01,2013-02-25 08:49:00,
2013-02-25 03:50:00,30.3,29.0,29.91,WNW,302,0.0,0.0,95,0.00,,---,0.00,VWS V14.01,2013-02-25 08:50:00,
2013-02-25 03:54:00,30.3,29.0,29.91,WNW,302,0.0,0.0,95,0.00,,---,0.00,VWS V14.01,2013-02-25 08:54:00,
2013-02-25 03:55:00,30.3,29.0,29.91,WNW,302,0.0,0.0,95,0.00,,---,0.00,VWS V14.01,2013-02-25 08:55:00,
2013-02-25 03:59:00,30.3,29.0,29.91,WNW,302,0.0,0.0,95,0.00,,---,0.00,VWS V14.01,2013-02-25 08:59:00,
2013-02-25 04:00:00,30.3,29.0,29.91,WNW,302,0.0,0.0,95,0.00,,---,0.00,VWS V14.01,2013-02-25 09:00:00,
2013-02-25 04:04:00,30.3,29.0,29.92,WNW,302,0.0,0.0,95,0.00,,---,0.00,VWS V14.01,2013-02-25 09:04:00,
2013-02-25 04:05:00,30.3,29.0,29.91,WNW,302,0.0,0.0,95,0.00,,---,0.00,VWS V14.01,2013-02-25 09:05:00,
2013-02-25 04:09:00,30.3,29.0,29.92,WNW,302,0.0,0.0,95,0.00,,---,0.00,VWS V14.01,2013-02-25 09:09:00,
2013-02-25 04:10:00,30.3,29.0,29.92,WNW,302,0.0,0.0,95,0.00,,---,0.00,VWS V14.01,2013-02-25 09:10:00,
2013-02-25 04:14:00,30.3,29.0,29.92,WNW,302,0.0,0.0,95,0.00,,---,0.00,VWS V14.01,2013-02-25 09:14:00,
2013-02-25 04:15:00,30.3,29.0,29.92,WNW,302,0.0,0.0,95,0.00,,---,0.00,VWS V14.01,2013-02-25 09:15:00,
2013-02-25 04:19:00,30.3,29.0,29.92,WNW,302,0.0,0.0,95,0.00,,---,0.00,VWS V14.01,2013-02-25 09:19:00,
2013-02-25 04:20:00,30.3,29.0,29.92,WNW,302,0.0,0.0,95,0.00,,---,0.00,VWS V14.01,2013-02-25 09:20:00,
2013-02-25 04:24:00,30.3,29.0,29.92,WNW,302,0.0,0.0,95,0.00,,---,0.00,VWS V14.01,2013-02-25 09:24:00,
2013-02-25 04:25:00,30.3,29.0,29.93,WNW,302,0.0,0.0,95,0.00,,---,0.00,VWS V14.01,2013-02-25 09:25:00,
2013-02-25 04:30:00,30.3,29.0,29.93,WNW,302,0.0,0.0,95,0.00,,---,0.00,VWS V14.01,2013-02-25 09:30:00,
2013-02-25 04:35:00,30.4,29.1,29.93,WNW,302,0.0,0.0,95,0.00,,---,0.00,VWS V14.01,2013-02-25 09:35:00,
2013-02-25 04:40:00,30.4,29.1,29.94,WNW,302,0.0,0.0,95,0.00,,---,0.00,VWS V14.01,2013-02-25 09:40:00,
2013-02-25 04:45:00,30.4,29.1,29.94,WNW,302,0.0,0.0,95,0.00,,---,0.00,VWS V14.01,2013-02-25 09:45:00,
2013-02-25 04:50:00,30.4,29.1,29.94,WNW,302,0.0,0.0,95,0.00,,---,0.00,VWS V14.01,2013-02-25 09:50:00,
2013-02-25 04:55:00,30.5,29.2,29.94,WNW,302,0.0,0.0,95,0.00,,---,0.00,VWS V14.01,2013-02-25 09:55:00,
2013-02-25 05:00:00,30.5,29.2,29.94,WNW,302,0.0,0.0,95,0.00,,---,0.00,VWS V14.01,2013-02-25 10:00:00,
2013-02-25 05:05:00,30.5,29.2,29.94,WNW,302,0.0,0.0,95,0.00,,---,0.00,VWS V14.01,2013-02-25 10:05:00,
2013-02-25 05:10:00,30.5,29.2,29.94,WNW,302,0.0,0.0,95,0.00,,---,0.00,VWS V14.01,2013-02-25 10:10:00,
2013-02-25 05:15:00,30.5,29.2,29.95,WNW,302,0.0,0.0,95,0.00,,---,0.00,VWS V14.01,2013-02-25 10:15:00,
2013-02-25 05:20:00,30.6,29.3,29.95,WNW,302,0.0,0.0,95,0.00,,---,0.00,VWS V14.01,2013-02-25 10:20:00,
2013-02-25 05:25:00,30.6,29.3,29.95,WNW,302,0.0,0.0,95,0.00,,---,0.00,VWS V14.01,2013-02-25 10:25:00,
2013-02-25 05:30:00,30.6,29.3,29.95,WNW,302,0.0,0.0,95,0.00,,---,0.00,VWS V14.01,2013-02-25 10:30:00,
2013-02-25 05:35:00,30.6,29.3,29.95,WNW,302,0.0,0.0,95,0.00,,---,0.00,VWS V14.01,2013-02-25 10:35:00,
2013-02-25 05:40:00,30.6,29.3,29.95,WNW,302,0.0,0.0,95,0.00,,---,0.00,VWS V14.01,2013-02-25 10:40:00,
2013-02-25 05:45:00,30.5,29.2,29.96,WNW,302,0.0,0.0,95,0.00,,---,0.00,VWS V14.01,2013-02-25 10:45:00,
2013-02-25 05:50:00,30.5,29.2,29.96,WNW,302,0.0,0.0,95,0.00,,---,0.00,VWS V14.01,2013-02-25 10:50:00,
2013-02-25 05:55:00,30.5,29.2,29.96,WNW,302,0.0,0.0,95,0.00,,---,0.00,VWS V14.01,2013-02-25 10:55:00,
2013-02-25 05:56:00,30.5,29.2,29.96,WNW,302,0.0,0.0,95,0.00,,---,0.00,VWS V14.01,2013-02-25 10:56:00,
2013-02-25 06:00:00,30.5,29.2,29.96,WNW,302,0.0,0.0,95,0.00,,---,0.00,VWS V14.01,2013-02-25 11:00:00,
2013-02-25 06:01:00,30.5,29.2,29.96,WNW,302,0.0,0.0,95,0.00,,---,0.00,VWS V14.01,2013-02-25 11:01:00,
2013-02-25 06:05:00,30.5,29.2,29.96,WNW,302,0.0,0.0,95,0.00,,---,0.00,VWS V14.01,2013-02-25 11:05:00,
2013-02-25 06:06:00,30.5,29.2,29.96,WNW,302,0.0,0.0,95,0.00,,---,0.00,VWS V14.01,2013-02-25 11:06:00,
2013-02-25 06:10:00,30.5,29.2,29.97,WNW,302,0.0,0.0,95,0.00,,---,0.00,VWS V14.01,2013-02-25 11:10:00,
2013-02-25 06:11:00,30.5,29.2,29.97,WNW,302,0.0,0.0,95,0.00,,---,0.00,VWS V14.01,2013-02-25 11:11:00,
2013-02-25 06:15:00,30.5,29.2,29.97,WNW,302,0.0,0.0,95,0.00,,---,0.00,VWS V14.01,2013-02-25 11:15:00,
2013-02-25 06:16:00,30.4,29.1,29.97,WNW,302,0.0,0.0,95,0.00,,---,0.00,VWS V14.01,2013-02-25 11:16:00,
2013-02-25 06:20:00,30.4,29.1,29.97,WNW,302,0.0,0.0,95,0.00,,---,0.00,VWS V14.01,2013-02-25 11:20:00,
2013-02-25 06:21:00,30.4,29.1,29.97,WNW,302,0.0,0.0,95,0.00,,---,0.00,VWS V14.01,2013-02-25 11:21:00,
2013-02-25 06:25:00,30.4,29.1,29.97,WNW,302,0.0,0.0,95,0.00,,---,0.00,VWS V14.01,2013-02-25 11:25:00,
2013-02-25 06:26:00,30.4,29.1,29.97,WNW,302,0.0,0.0,95,0.00,,---,0.00,VWS V14.01,2013-02-25 11:26:00,
2013-02-25 06:30:00,30.4,29.1,29.97,WNW,302,0.0,0.0,95,0.00,,---,0.00,VWS V14.01,2013-02-25 11:30:00,
2013-02-25 06:31:00,30.4,29.1,29.97,WNW,302,0.0,0.0,95,0.00,,---,0.00,VWS V14.01,2013-02-25 11:31:00,
2013-02-25 06:35:00,30.4,29.1,29.97,WNW,302,0.0,0.0,95,0.00,,---,0.00,VWS V14.01,2013-02-25 11:35:00,
2013-02-25 06:36:00,30.4,29.1,29.97,WNW,302,0.0,0.0,95,0.00,,---,0.00,VWS V14.01,2013-02-25 11:36:00,
2013-02-25 06:40:00,30.4,29.1,29.97,WNW,302,0.0,0.0,95,0.00,,---,0.00,VWS V14.01,2013-02-25 11:40:00,
2013-02-25 06:41:00,30.4,29.1,29.98,WNW,302,0.0,0.0,95,0.00,,---,0.00,VWS V14.01,2013-02-25 11:41:00,
2013-02-25 06:45:00,30.4,29.1,29.98,WNW,302,0.0,0.0,95,0.00,,---,0.00,VWS V14.01,2013-02-25 11:45:00,
2013-02-25 06:46:00,30.4,29.1,29.98,WNW,302,0.0,0.0,95,0.00,,---,0.00,VWS V14.01,2013-02-25 11:46:00,
2013-02-25 06:50:00,30.4,29.1,29.98,WNW,302,0.0,0.0,95,0.00,,---,0.00,VWS V14.01,2013-02-25 11:50:00,
2013-02-25 06:51:00,30.4,29.1,29.98,WNW,302,0.0,0.0,95,0.00,,---,0.00,VWS V14.01,2013-02-25 11:51:00,
2013-02-25 06:55:00,30.4,29.1,29.98,WNW,302,0.0,0.0,95,0.00,,---,0.00,VWS V14.01,2013-02-25 11:55:00,
2013-02-25 06:56:00,30.4,29.1,29.98,WNW,302,0.0,0.0,95,0.00,,---,0.00,VWS V14.01,2013-02-25 11:56:00,
2013-02-25 07:00:00,30.4,29.1,29.99,WNW,302,0.0,0.0,95,0.00,,---,0.00,VWS V14.01,2013-02-25 12:00:00,
2013-02-25 07:01:00,30.4,29.1,29.99,WNW,302,0.0,0.0,95,0.00,,---,0.00,VWS V14.01,2013-02-25 12:01:00,
2013-02-25 07:05:00,30.4,29.1,29.99,WNW,302,0.0,0.0,95,0.00,,---,0.00,VWS V14.01,2013-02-25 12:05:00,
2013-02-25 07:06:00,30.4,29.1,29.99,WNW,302,0.0,0.0,95,0.00,,---,0.00,VWS V14.01,2013-02-25 12:06:00,
2013-02-25 07:10:00,30.5,29.2,29.99,WNW,302,0.0,0.0,95,0.00,,---,0.00,VWS V14.01,2013-02-25 12:10:00,
2013-02-25 07:11:00,30.5,29.2,29.99,WNW,302,0.0,0.0,95,0.00,,---,0.00,VWS V14.01,2013-02-25 12:11:00,
2013-02-25 07:15:00,30.5,29.2,29.99,WNW,302,0.0,0.0,95,0.00,,---,0.00,VWS V14.01,2013-02-25 12:15:00,
2013-02-25 07:16:00,30.5,29.2,29.99,WNW,302,0.0,0.0,95,0.00,,---,0.00,VWS V14.01,2013-02-25 12:16:00,
2013-02-25 07:20:00,30.6,29.3,29.99,WNW,302,0.0,0.0,95,0.00,,---,0.00,VWS V14.01,2013-02-25 12:20:00,
2013-02-25 07:21:00,30.7,29.4,29.99,WNW,302,0.0,0.0,95,0.00,,---,0.00,VWS V14.01,2013-02-25 12:21:00,
2013-02-25 07:25:00,30.7,29.4,29.99,WNW,302,0.0,0.0,95,0.00,,---,0.00,VWS V14.01,2013-02-25 12:25:00,
2013-02-25 07:26:00,30.8,29.5,29.99,WNW,302,0.0,0.0,95,0.00,,---,0.00,VWS V14.01,2013-02-25 12:26:00,
2013-02-25 07:30:00,30.9,29.6,29.99,WNW,302,0.0,0.0,95,0.00,,---,0.00,VWS V14.01,2013-02-25 12:30:00,
2013-02-25 07:31:00,31.0,29.7,29.99,WNW,302,0.0,0.0,95,0.00,,---,0.00,VWS V14.01,2013-02-25 12:31:00,
2013-02-25 07:35:00,31.0,29.7,30.00,WNW,302,0.0,0.0,95,0.00,,---,0.00,VWS V14.01,2013-02-25 12:35:00,
2013-02-25 07:37:00,31.1,29.8,30.00,WNW,302,0.0,0.0,95,0.00,,---,0.00,VWS V14.01,2013-02-25 12:37:00,
2013-02-25 07:40:00,31.2,29.9,30.00,WNW,302,0.0,0.0,95,0.00,,---,0.00,VWS V14.01,2013-02-25 12:40:00,
2013-02-25 07:42:00,31.3,30.0,30.00,WNW,302,0.0,0.0,95,0.00,,---,0.00,VWS V14.01,2013-02-25 12:42:00,
2013-02-25 07:45:00,31.4,30.4,30.00,WNW,302,0.0,0.0,96,0.00,,---,0.00,VWS V14.01,2013-02-25 12:45:00,
2013-02-25 07:48:00,31.5,30.5,30.00,WNW,302,0.0,0.0,96,0.00,,---,0.00,VWS V14.01,2013-02-25 12:48:00,
2013-02-25 07:50:00,31.6,30.6,30.00,WNW,302,0.0,0.0,96,0.00,,---,0.00,VWS V14.01,2013-02-25 12:50:00,
2013-02-25 07:53:00,31.8,30.5,30.00,WNW,302,0.0,0.0,95,0.00,,---,0.00,VWS V14.01,2013-02-25 12:53:00,
2013-02-25 07:55:00,31.8,30.5,30.00,WNW,302,0.0,0.0,95,0.00,,---,0.00,VWS V14.01,2013-02-25 12:55:00,
2013-02-25 07:58:00,32.0,31.0,30.00,WNW,302,0.0,0.0,96,0.00,,---,0.00,VWS V14.01,2013-02-25 12:58:00,
2013-02-25 08:00:00,32.0,31.0,30.00,WNW,302,0.0,3.0,96,0.00,,---,0.00,VWS V14.01,2013-02-25 13:00:00,
2013-02-25 08:03:00,32.2,30.9,30.00,NE,44,1.0,1.0,95,0.00,,---,0.00,VWS V14.01,2013-02-25 13:03:00,
2013-02-25 08:05:00,32.2,30.9,30.00,NE,44,0.0,2.0,95,0.00,,---,0.00,VWS V14.01,2013-02-25 13:05:00,
2013-02-25 08:09:00,32.5,31.5,30.01,NE,44,0.0,0.0,96,0.00,,---,0.00,VWS V14.01,2013-02-25 13:09:00,
2013-02-25 08:10:00,32.4,31.4,30.01,NE,44,0.0,1.0,96,0.00,,---,0.00,VWS V14.01,2013-02-25 13:10:00,
2013-02-25 08:14:00,32.6,31.6,30.01,NE,44,0.0,0.0,96,0.00,,---,0.00,VWS V14.01,2013-02-25 13:14:00,
2013-02-25 08:15:00,32.6,31.6,30.01,NE,44,0.0,0.0,96,0.00,,---,0.00,VWS V14.01,2013-02-25 13:15:00,
2013-02-25 08:19:00,32.8,31.5,30.02,NE,44,0.0,0.0,95,0.00,,---,0.00,VWS V14.01,2013-02-25 13:19:00,
2013-02-25 08:20:00,32.8,31.5,30.02,NE,44,0.0,0.0,95,0.00,,---,0.00,VWS V14.01,2013-02-25 13:20:00,
2013-02-25 08:24:00,32.8,31.5,30.02,NE,44,0.0,0.0,95,0.00,,---,0.00,VWS V14.01,2013-02-25 13:24:00,
2013-02-25 08:25:00,32.9,31.6,30.02,NE,44,0.0,0.0,95,0.00,,---,0.00,VWS V14.01,2013-02-25 13:25:00,
2013-02-25 08:29:00,32.9,31.6,30.02,NE,44,0.0,0.0,95,0.00,,---,0.00,VWS V14.01,2013-02-25 13:29:00,
2013-02-25 08:30:00,32.9,31.6,30.02,NE,44,0.0,0.0,95,0.00,,---,0.00,VWS V14.01,2013-02-25 13:30:00,
2013-02-25 08:34:00,33.1,31.8,30.02,NE,44,0.0,0.0,95,0.00,,---,0.00,VWS V14.01,2013-02-25 13:34:00,
2013-02-25 08:35:00,33.0,31.7,30.02,NE,44,0.0,0.0,95,0.00,,---,0.00,VWS V14.01,2013-02-25 13:35:00,
2013-02-25 08:39:00,33.2,31.9,30.02,NE,44,0.0,0.0,95,0.00,,---,0.00,VWS V14.01,2013-02-25 13:39:00,
2013-02-25 08:40:00,33.2,31.9,30.02,NE,44,0.0,0.0,95,0.00,,---,0.00,VWS V14.01,2013-02-25 13:40:00,
2013-02-25 08:44:00,33.4,32.1,30.02,NE,44,0.0,0.0,95,0.00,,---,0.00,VWS V14.01,2013-02-25 13:44:00,
2013-02-25 08:45:00,33.3,32.0,30.02,NE,44,0.0,0.0,95,0.00,,---,0.00,VWS V14.01,2013-02-25 13:45:00,
2013-02-25 08:49:00,33.6,32.3,30.02,NE,44,0.0,0.0,95,0.00,,---,0.00,VWS V14.01,2013-02-25 13:49:00,
2013-02-25 08:50:00,33.5,32.2,30.02,NE,44,0.0,0.0,95,0.00,,---,0.00,VWS V14.01,2013-02-25 13:50:00,
2013-02-25 08:55:00,33.8,32.5,30.02,NE,44,0.0,0.0,95,0.00,,---,0.00,VWS V14.01,2013-02-25 13:55:00,
2013-02-25 09:00:00,34.1,32.6,30.02,NE,44,0.0,0.0,94,0.01,,---,0.01,VWS V14.01,2013-02-25 14:00:00,
2013-02-25 09:05:00,34.1,32.6,30.02,NE,44,0.0,0.0,94,0.01,,---,0.01,VWS V14.01,2013-02-25 14:05:00,
2013-02-25 09:10:00,34.1,32.6,30.02,NE,44,0.0,1.0,94,0.01,,---,0.01,VWS V14.01,2013-02-25 14:10:00,
2013-02-25 09:11:00,34.1,32.3,30.02,NE,44,0.0,1.0,93,0.01,,---,0.01,VWS V14.01,2013-02-25 14:11:00,
2013-02-25 09:15:00,34.0,32.2,30.02,NE,44,0.0,1.0,93,0.01,,---,0.01,VWS V14.01,2013-02-25 14:15:00,
2013-02-25 09:17:00,34.1,32.3,30.03,NE,44,0.0,0.0,93,0.01,,---,0.01,VWS V14.01,2013-02-25 14:17:00,
2013-02-25 09:20:00,34.2,32.4,30.03,NE,44,0.0,0.0,93,0.01,,---,0.01,VWS V14.01,2013-02-25 14:20:00,
2013-02-25 09:22:00,34.4,32.6,30.03,NE,44,0.0,1.0,93,0.02,,---,0.02,VWS V14.01,2013-02-25 14:22:00,
2013-02-25 09:25:00,34.4,32.6,30.03,NE,44,0.0,1.0,93,0.02,,---,0.02,VWS V14.01,2013-02-25 14:25:00,
2013-02-25 09:27:00,34.4,32.3,30.03,NE,44,0.0,2.0,92,0.02,,---,0.02,VWS V14.01,2013-02-25 14:27:00,
2013-02-25 09:30:00,34.4,32.3,30.03,NE,44,0.0,2.0,92,0.02,,---,0.02,VWS V14.01,2013-02-25 14:30:00,
2013-02-25 09:32:00,34.4,32.0,30.04,NE,44,0.0,2.0,91,0.02,,---,0.02,VWS V14.01,2013-02-25 14:32:00,
2013-02-25 09:35:00,34.4,32.0,30.04,NE,44,0.0,2.0,91,0.02,,---,0.02,VWS V14.01,2013-02-25 14:35:00,
2013-02-25 09:37:00,34.7,32.3,30.04,NE,44,1.0,1.0,91,0.03,,---,0.03,VWS V14.01,2013-02-25 14:37:00,
2013-02-25 09:40:00,34.7,32.3,30.04,NE,44,0.0,2.0,91,0.03,,---,0.03,VWS V14.01,2013-02-25 14:40:00,
2013-02-25 09:42:00,34.9,32.3,30.04,NE,44,0.0,0.0,90,0.03,,---,0.03,VWS V14.01,2013-02-25 14:42:00,
2013-02-25 09:45:00,34.9,32.3,30.04,NE,44,0.0,0.0,90,0.03,,---,0.03,VWS V14.01,2013-02-25 14:45:00,
2013-02-25 09:47:00,35.0,32.1,30.04,NE,44,0.0,1.0,89,0.04,,---,0.04,VWS V14.01,2013-02-25 14:47:00,
2013-02-25 09:50:00,35.0,32.1,30.04,NE,44,0.0,1.0,89,0.04,,---,0.04,VWS V14.01,2013-02-25 14:50:00,
2013-02-25 09:52:00,35.0,31.8,30.04,NE,44,0.0,0.0,88,0.05,,---,0.05,VWS V14.01,2013-02-25 14:52:00,
2013-02-25 09:55:00,35.0,31.8,30.04,NE,44,0.0,0.0,88,0.05,,---,0.05,VWS V14.01,2013-02-25 14:55:00,
2013-02-25 09:57:00,35.0,31.5,30.05,NE,44,0.0,2.0,87,0.05,,---,0.05,VWS V14.01,2013-02-25 14:57:00,
2013-02-25 10:00:00,35.0,31.5,30.05,NE,44,0.0,2.0,87,0.05,,---,0.05,VWS V14.01,2013-02-25 15:00:00,
2013-02-25 10:02:00,35.1,31.9,30.05,NE,44,0.0,0.0,88,0.05,,---,0.06,VWS V14.01,2013-02-25 15:02:00,
2013-02-25 10:05:00,35.1,31.9,30.05,NE,44,0.0,0.0,88,0.05,,---,0.06,VWS V14.01,2013-02-25 15:05:00,
2013-02-25 10:08:00,35.3,32.1,30.05,NE,44,0.0,0.0,88,0.05,,---,0.06,VWS V14.01,2013-02-25 15:08:00,
2013-02-25 10:10:00,35.3,32.1,30.05,NE,44,0.0,0.0,88,0.05,,---,0.06,VWS V14.01,2013-02-25 15:10:00,
2013-02-25 10:13:00,35.3,31.8,30.05,NE,44,0.0,0.0,87,0.06,,---,0.07,VWS V14.01,2013-02-25 15:13:00,
2013-02-25 10:15:00,35.3,31.8,30.05,NE,44,0.0,0.0,87,0.06,,---,0.07,VWS V14.01,2013-02-25 15:15:00,
2013-02-25 10:18:00,35.3,31.5,30.05,NE,44,0.0,1.0,86,0.06,,---,0.07,VWS V14.01,2013-02-25 15:18:00,
2013-02-25 10:20:00,35.3,31.5,30.05,NE,44,0.0,1.0,86,0.06,,---,0.07,VWS V14.01,2013-02-25 15:20:00,
2013-02-25 10:23:00,35.3,31.5,30.05,NE,44,0.0,1.0,86,0.07,,---,0.08,VWS V14.01,2013-02-25 15:23:00,
2013-02-25 10:25:00,35.3,31.5,30.05,NE,44,0.0,1.0,86,0.07,,---,0.08,VWS V14.01,2013-02-25 15:25:00,
2013-02-25 10:28:00,35.2,31.4,30.05,NE,44,0.0,1.0,86,0.06,,---,0.08,VWS V14.01,2013-02-25 15:28:00,
2013-02-25 10:30:00,35.2,31.4,30.05,NE,44,0.0,1.0,86,0.06,,---,0.08,VWS V14.01,2013-02-25 15:30:00,
2013-02-25 10:33:00,35.3,31.8,30.05,NE,44,0.0,0.0,87,0.07,,---,0.09,VWS V14.01,2013-02-25 15:33:00,
2013-02-25 10:35:00,35.3,31.8,30.05,NE,44,0.0,0.0,87,0.07,,---,0.09,VWS V14.01,2013-02-25 15:35:00,
2013-02-25 10:38:00,35.5,32.0,30.06,NE,44,0.0,0.0,87,0.07,,---,0.09,VWS V14.01,2013-02-25 15:38:00,
2013-02-25 10:40:00,35.5,32.0,30.06,NE,44,0.0,0.0,87,0.07,,---,0.09,VWS V14.01,2013-02-25 15:40:00,
2013-02-25 10:43:00,35.8,32.3,30.06,NE,44,0.0,1.0,87,0.06,,---,0.09,VWS V14.01,2013-02-25 15:43:00,
2013-02-25 10:45:00,35.8,32.3,30.06,NE,44,0.0,1.0,87,0.06,,---,0.09,VWS V14.01,2013-02-25 15:45:00,
2013-02-25 10:48:00,35.8,32.0,30.06,NE,44,0.0,2.0,86,0.07,,---,0.10,VWS V14.01,2013-02-25 15:48:00,
2013-02-25 10:50:00,35.8,32.0,30.06,NE,44,0.0,2.0,86,0.07,,---,0.10,VWS V14.01,2013-02-25 15:50:00,
2013-02-25 10:53:00,35.6,31.5,30.06,NE,44,0.0,2.0,85,0.06,,---,0.10,VWS V14.01,2013-02-25 15:53:00,
2013-02-25 10:55:00,35.6,31.5,30.06,NE,44,0.0,2.0,85,0.06,,---,0.10,VWS V14.01,2013-02-25 15:55:00,
2013-02-25 10:58:00,35.4,31.4,30.06,NE,44,0.0,2.0,85,0.06,,---,0.11,VWS V14.01,2013-02-25 15:58:00,
2013-02-25 11:00:00,35.4,31.4,30.06,NE,44,0.0,2.0,85,0.06,,---,0.11,VWS V14.01,2013-02-25 16:00:00,
2013-02-25 11:03:00,35.3,31.2,30.06,NE,44,0.0,1.0,85,0.06,,---,0.11,VWS V14.01,2013-02-25 16:03:00,
2013-02-25 11:05:00,35.3,31.2,30.06,NE,44,0.0,1.0,85,0.06,,---,0.11,VWS V14.01,2013-02-25 16:05:00,
2013-02-25 11:08:00,35.5,31.5,30.06,NE,44,2.0,2.0,85,0.05,,---,0.11,VWS V14.01,2013-02-25 16:08:00,
2013-02-25 11:10:00,35.4,31.4,30.06,NE,44,0.0,1.0,85,0.05,,---,0.11,VWS V14.01,2013-02-25 16:10:00,
2013-02-25 11:13:00,35.7,31.6,30.05,NE,44,0.0,0.0,85,0.04,,---,0.11,VWS V14.01,2013-02-25 16:13:00,
2013-02-25 11:15:00,35.6,31.5,30.05,NE,44,0.0,2.0,85,0.05,,---,0.11,VWS V14.01,2013-02-25 16:15:00,
2013-02-25 11:18:00,36.0,31.9,30.06,NE,44,0.0,0.0,85,0.05,,---,0.12,VWS V14.01,2013-02-25 16:18:00,
2013-02-25 11:20:00,35.9,31.8,30.05,NE,44,0.0,0.0,85,0.05,,---,0.12,VWS V14.01,2013-02-25 16:20:00,
2013-02-25 11:23:00,36.1,31.7,30.06,NE,44,0.0,0.0,84,0.04,,---,0.12,VWS V14.01,2013-02-25 16:23:00,
2013-02-25 11:25:00,36.2,32.1,30.06,NE,44,0.0,2.0,85,0.05,,---,0.12,VWS V14.01,2013-02-25 16:25:00,
2013-02-25 11:29:00,36.2,31.2,30.06,NE,44,0.0,0.0,82,0.05,,---,0.13,VWS V14.01,2013-02-25 16:29:00,
2013-02-25 11:30:00,36.2,31.2,30.06,NE,44,0.0,0.0,82,0.05,,---,0.13,VWS V14.01,2013-02-25 16:30:00,
2013-02-25 11:34:00,36.5,31.8,30.06,NE,44,2.0,2.0,83,0.04,,---,0.13,VWS V14.01,2013-02-25 16:34:00,
2013-02-25 11:35:00,36.5,31.8,30.06,NE,44,0.0,2.0,83,0.05,,---,0.13,VWS V14.01,2013-02-25 16:35:00,
2013-02-25 11:39:00,36.6,31.6,30.06,NE,44,0.0,0.0,82,0.04,,---,0.13,VWS V14.01,2013-02-25 16:39:00,
2013-02-25 11:40:00,36.6,31.6,30.06,NE,44,0.0,2.0,82,0.04,,---,0.13,VWS V14.01,2013-02-25 16:40:00,
2013-02-25 11:44:00,36.8,31.8,30.05,NW,319,2.0,2.0,82,0.04,,---,0.13,VWS V14.01,2013-02-25 16:44:00,
2013-02-25 11:45:00,36.8,31.8,30.06,NW,319,1.0,2.0,82,0.04,,---,0.13,VWS V14.01,2013-02-25 16:45:00,
2013-02-25 11:49:00,36.8,31.2,30.05,NW,319,0.0,0.0,80,0.04,,---,0.14,VWS V14.01,2013-02-25 16:49:00,
2013-02-25 11:50:00,36.8,31.2,30.05,NW,319,0.0,3.0,80,0.05,,---,0.14,VWS V14.01,2013-02-25 16:50:00,
2013-02-25 11:54:00,36.8,31.2,30.06,ENE,59,1.0,4.0,80,0.04,,---,0.14,VWS V14.01,2013-02-25 16:54:00,
2013-02-25 11:55:00,36.8,31.2,30.06,NNW,327,0.0,3.0,80,0.04,,---,0.14,VWS V14.01,2013-02-25 16:55:00,
2013-02-25 11:59:00,36.9,30.7,30.05,NE,40,1.0,2.0,78,0.03,,---,0.14,VWS V14.01,2013-02-25 16:59:00,
2013-02-25 12:00:00,36.9,31.0,30.06,NE,40,1.0,4.0,79,0.04,,---,0.14,VWS V14.01,2013-02-25 17:00:00,
2013-02-25 12:04:00,36.9,30.4,30.05,WNW,300,0.0,0.0,77,0.04,,---,0.15,VWS V14.01,2013-02-25 17:04:00,
2013-02-25 12:05:00,36.8,30.3,30.05,WNW,300,0.0,3.0,77,0.04,,---,0.15,VWS V14.01,2013-02-25 17:05:00,
2013-02-25 12:09:00,37.2,31.6,30.05,WNW,303,1.0,1.0,80,0.04,,---,0.15,VWS V14.01,2013-02-25 17:09:00,
2013-02-25 12:10:00,37.1,31.2,30.06,NW,304,0.0,2.0,79,0.04,,---,0.15,VWS V14.01,2013-02-25 17:10:00,
2013-02-25 12:14:00,37.4,30.9,30.06,ENE,57,0.0,0.0,77,0.04,,---,0.15,VWS V14.01,2013-02-25 17:14:00,
2013-02-25 12:15:00,37.4,30.9,30.06,ENE,57,0.0,4.0,77,0.04,,---,0.15,VWS V14.01,2013-02-25 17:15:00,
2013-02-25 12:19:00,37.5,31.0,30.06,West,266,0.0,2.0,77,0.03,,---,0.15,VWS V14.01,2013-02-25 17:19:00,
2013-02-25 12:20:00,37.5,31.0,30.06,West,267,1.0,3.0,77,0.04,,---,0.15,VWS V14.01,2013-02-25 17:20:00,
2013-02-25 12:24:00,37.7,30.5,30.06,West,270,1.0,1.0,75,0.03,,---,0.15,VWS V14.01,2013-02-25 17:24:00,
2013-02-25 12:25:00,37.7,30.5,30.06,West,269,1.0,3.0,75,0.03,,---,0.15,VWS V14.01,2013-02-25 17:25:00,
2013-02-25 12:29:00,37.8,30.6,30.06,NNW,342,1.0,3.0,75,0.02,,---,0.15,VWS V14.01,2013-02-25 17:29:00,
2013-02-25 12:30:00,37.8,30.9,30.06,North,355,0.0,3.0,76,0.03,,---,0.15,VWS V14.01,2013-02-25 17:30:00,
2013-02-25 12:34:00,37.7,30.2,30.06,NNW,332,1.0,2.0,74,0.02,,---,0.15,VWS V14.01,2013-02-25 17:34:00,
2013-02-25 12:35:00,37.7,30.2,30.06,NNW,342,0.0,3.0,74,0.02,,---,0.15,VWS V14.01,2013-02-25 17:35:00,
2013-02-25 12:39:00,37.7,30.5,30.05,NW,312,0.0,2.0,75,0.02,,---,0.15,VWS V14.01,2013-02-25 17:39:00,
2013-02-25 12:40:00,37.6,30.1,30.06,NNW,332,1.0,3.0,74,0.02,,---,0.15,VWS V14.01,2013-02-25 17:40:00,
2013-02-25 12:44:00,37.8,30.3,30.06,NW,312,1.0,1.0,74,0.02,,---,0.15,VWS V14.01,2013-02-25 17:44:00,
2013-02-25 12:45:00,37.8,30.6,30.06,NW,312,1.0,3.0,75,0.02,,---,0.15,VWS V14.01,2013-02-25 17:45:00,
2013-02-25 12:49:00,37.9,30.4,30.06,NW,312,1.0,1.0,74,0.01,,---,0.15,VWS V14.01,2013-02-25 17:49:00,
2013-02-25 12:50:00,37.9,30.4,30.06,NW,312,0.0,2.0,74,0.02,,---,0.15,VWS V14.01,2013-02-25 17:50:00,
2013-02-25 12:55:00,37.9,30.7,30.06,North,11,0.0,3.0,75,0.01,,---,0.15,VWS V14.01,2013-02-25 17:55:00,
2013-02-25 13:00:00,38.4,31.8,30.06,North,5,0.0,1.0,77,0.01,,---,0.15,VWS V14.01,2013-02-25 18:00:00,
2013-02-25 13:05:00,38.6,31.0,30.06,North,5,0.0,2.0,74,0.00,,---,0.15,VWS V14.01,2013-02-25 18:05:00,
2013-02-25 13:10:00,38.3,31.7,30.07,East,91,0.0,3.0,77,0.00,,---,0.15,VWS V14.01,2013-02-25 18:10:00,
2013-02-25 13:15:00,38.6,32.0,30.07,WNW,299,2.0,4.0,77,0.00,,---,0.15,VWS V14.01,2013-02-25 18:15:00,
2013-02-25 13:20:00,38.6,31.7,30.07,WNW,288,1.0,4.0,76,0.00,,---,0.15,VWS V14.01,2013-02-25 18:20:00,
2013-02-25 13:25:00,38.4,31.5,30.08,WSW,250,1.0,5.0,76,0.00,,---,0.15,VWS V14.01,2013-02-25 18:25:00,
2013-02-25 13:30:00,38.4,31.8,30.08,West,275,0.0,3.0,77,0.00,,---,0.15,VWS V14.01,2013-02-25 18:30:00,
2013-02-25 13:35:00,38.4,31.2,30.08,West,276,0.0,2.0,75,0.00,,---,0.15,VWS V14.01,2013-02-25 18:35:00,
2013-02-25 13:40:00,38.3,31.4,30.08,West,276,1.0,2.0,76,0.00,,---,0.15,VWS V14.01,2013-02-25 18:40:00,
2013-02-25 13:45:00,38.7,31.8,30.08,WSW,244,2.0,3.0,76,0.00,,---,0.15,VWS V14.01,2013-02-25 18:45:00,
2013-02-25 13:50:00,39.1,32.2,30.08,SW,229,0.0,1.0,76,0.00,,---,0.15,VWS V14.01,2013-02-25 18:50:00,
2013-02-25 13:55:00,39.4,32.2,30.08,WSW,241,2.0,4.0,75,0.00,,---,0.15,VWS V14.01,2013-02-25 18:55:00,
2013-02-25 14:00:00,39.7,32.1,30.08,WNW,294,0.0,4.0,74,0.00,,---,0.15,VWS V14.01,2013-02-25 19:00:00,
2013-02-25 14:05:00,39.7,32.1,30.08,NW,311,0.0,4.0,74,0.00,,---,0.15,VWS V14.01,2013-02-25 19:05:00,
2013-02-25 14:06:00,39.8,32.2,30.09,WNW,284,0.0,3.0,74,0.00,,---,0.15,VWS V14.01,2013-02-25 19:06:00,
2013-02-25 14:10:00,39.7,32.4,30.09,SW,227,1.0,4.0,75,0.00,,---,0.15,VWS V14.01,2013-02-25 19:10:00,
2013-02-25 14:11:00,39.7,32.4,30.08,SW,225,1.0,2.0,75,0.00,,---,0.15,VWS V14.01,2013-02-25 19:11:00,
2013-02-25 14:15:00,39.7,32.1,30.09,WSW,252,2.0,5.0,74,0.00,,---,0.15,VWS V14.01,2013-02-25 19:15:00,
2013-02-25 14:16:00,39.6,32.0,30.09,SW,222,2.0,5.0,74,0.00,,---,0.15,VWS V14.01,2013-02-25 19:16:00,
2013-02-25 14:20:00,39.5,31.9,30.08,SW,229,3.0,6.0,74,0.00,,---,0.15,VWS V14.01,2013-02-25 19:20:00,
2013-02-25 14:21:00,39.4,31.8,30.08,West,260,3.0,4.0,74,0.00,,---,0.15,VWS V14.01,2013-02-25 19:21:00,
2013-02-25 14:25:00,39.4,31.8,30.08,West,261,0.0,4.0,74,0.00,,---,0.15,VWS V14.01,2013-02-25 19:25:00,
2013-02-25 14:26:00,39.4,31.5,30.09,West,261,1.0,1.0,73,0.00,,---,0.15,VWS V14.01,2013-02-25 19:26:00,
2013-02-25 14:30:00,39.4,31.8,30.09,WNW,294,1.0,5.0,74,0.00,,---,0.15,VWS V14.01,2013-02-25 19:30:00,
2013-02-25 14:31:00,39.6,32.0,30.09,WNW,298,0.0,4.0,74,0.00,,---,0.15,VWS V14.01,2013-02-25 19:31:00,
2013-02-25 14:35:00,39.6,31.7,30.09,North,355,0.0,4.0,73,0.00,,---,0.15,VWS V14.01,2013-02-25 19:35:00,
2013-02-25 14:36:00,39.5,31.9,30.09,West,266,0.0,3.0,74,0.00,,---,0.15,VWS V14.01,2013-02-25 19:36:00,
2013-02-25 14:40:00,39.6,32.0,30.09,West,266,1.0,3.0,74,0.00,,---,0.15,VWS V14.01,2013-02-25 19:40:00,
2013-02-25 14:41:00,39.5,31.9,30.09,West,266,1.0,2.0,74,0.00,,---,0.15,VWS V14.01,2013-02-25 19:41:00,
2013-02-25 14:45:00,39.5,31.9,30.09,West,266,0.0,2.0,74,0.00,,---,0.15,VWS V14.01,2013-02-25 19:45:00,
2013-02-25 14:46:00,39.5,32.2,30.09,West,266,0.0,1.0,75,0.00,,---,0.15,VWS V14.01,2013-02-25 19:46:00,
2013-02-25 14:50:00,39.5,32.2,30.09,West,266,0.0,1.0,75,0.00,,---,0.15,VWS V14.01,2013-02-25 19:50:00,
2013-02-25 14:51:00,39.5,32.2,30.09,WSW,256,1.0,4.0,75,0.00,,---,0.15,VWS V14.01,2013-02-25 19:51:00,
2013-02-25 14:55:00,39.5,32.2,30.09,WSW,255,0.0,4.0,75,0.00,,---,0.15,VWS V14.01,2013-02-25 19:55:00,
2013-02-25 14:56:00,39.5,32.6,30.10,SW,221,4.0,4.0,76,0.00,,---,0.15,VWS V14.01,2013-02-25 19:56:00,
2013-02-25 15:00:00,39.5,32.6,30.10,WSW,246,1.0,5.0,76,0.00,,---,0.15,VWS V14.01,2013-02-25 20:00:00,
2013-02-25 15:01:00,39.4,32.5,30.10,West,260,1.0,3.0,76,0.00,,---,0.15,VWS V14.01,2013-02-25 20:01:00,
2013-02-25 15:05:00,39.4,32.5,30.10,West,260,0.0,3.0,76,0.00,,---,0.15,VWS V14.01,2013-02-25 20:05:00,
2013-02-25 15:06:00,39.3,32.7,30.10,West,261,2.0,2.0,77,0.00,,---,0.15,VWS V14.01,2013-02-25 20:06:00,
2013-02-25 15:10:00,39.2,32.9,30.10,SW,231,1.0,3.0,78,0.00,,---,0.15,VWS V14.01,2013-02-25 20:10:00,
2013-02-25 15:11:00,39.0,32.4,30.10,WSW,247,0.0,3.0,77,0.00,,---,0.15,VWS V14.01,2013-02-25 20:11:00,
2013-02-25 15:15:00,38.9,32.3,30.10,West,260,0.0,3.0,77,0.00,,---,0.15,VWS V14.01,2013-02-25 20:15:00,
2013-02-25 15:16:00,38.7,32.1,30.10,West,264,3.0,3.0,77,0.00,,---,0.15,VWS V14.01,2013-02-25 20:16:00,
2013-02-25 15:20:00,38.7,32.4,30.10,West,263,1.0,4.0,78,0.00,,---,0.15,VWS V14.01,2013-02-25 20:20:00,
2013-02-25 15:21:00,38.5,32.2,30.11,WSW,249,0.0,3.0,78,0.00,,---,0.15,VWS V14.01,2013-02-25 20:21:00,
2013-02-25 15:25:00,38.5,32.2,30.11,West,263,0.0,3.0,78,0.00,,---,0.15,VWS V14.01,2013-02-25 20:25:00,
2013-02-25 15:26:00,38.3,32.4,30.11,West,263,0.0,2.0,79,0.00,,---,0.15,VWS V14.01,2013-02-25 20:26:00,
2013-02-25 15:30:00,38.3,32.4,30.11,West,263,0.0,2.0,79,0.00,,---,0.15,VWS V14.01,2013-02-25 20:30:00,
2013-02-25 15:32:00,38.2,32.6,30.11,West,263,0.0,1.0,80,0.00,,---,0.15,VWS V14.01,2013-02-25 20:32:00,
2013-02-25 15:35:00,38.2,32.6,30.11,West,263,0.0,1.0,80,0.00,,---,0.15,VWS V14.01,2013-02-25 20:35:00,
2013-02-25 15:37:00,38.1,32.5,30.11,West,273,1.0,2.0,80,0.00,,---,0.15,VWS V14.01,2013-02-25 20:37:00,
2013-02-25 15:40:00,38.1,32.5,30.11,West,273,0.0,2.0,80,0.00,,---,0.15,VWS V14.01,2013-02-25 20:40:00,
2013-02-25 15:42:00,38.1,32.5,30.10,West,273,1.0,2.0,80,0.00,,---,0.15,VWS V14.01,2013-02-25 20:42:00,
2013-02-25 15:45:00,38.1,32.5,30.11,West,273,0.0,2.0,80,0.00,,---,0.15,VWS V14.01,2013-02-25 20:45:00,
2013-02-25 15:47:00,38.1,32.8,30.10,West,273,0.0,0.0,81,0.00,,---,0.15,VWS V14.01,2013-02-25 20:47:00,
2013-02-25 15:50:00,38.1,32.8,30.10,West,273,0.0,0.0,81,0.00,,---,0.15,VWS V14.01,2013-02-25 20:50:00,
2013-02-25 15:52:00,38.1,32.8,30.10,West,273,0.0,0.0,81,0.00,,---,0.15,VWS V14.01,2013-02-25 20:52:00,
2013-02-25 15:55:00,38.1,32.8,30.10,West,273,1.0,2.0,81,0.00,,---,0.15,VWS V14.01,2013-02-25 20:55:00,
2013-02-25 15:57:00,38.0,32.7,30.11,West,273,0.0,1.0,81,0.00,,---,0.15,VWS V14.01,2013-02-25 20:57:00,
2013-02-25 16:00:00,38.0,32.7,30.11,West,273,0.0,1.0,81,0.00,,---,0.15,VWS V14.01,2013-02-25 21:00:00,
2013-02-25 16:02:00,38.0,32.7,30.11,West,273,1.0,1.0,81,0.00,,---,0.15,VWS V14.01,2013-02-25 21:02:00,
2013-02-25 16:05:00,38.0,33.0,30.11,West,273,1.0,1.0,82,0.00,,---,0.15,VWS V14.01,2013-02-25 21:05:00,
2013-02-25 16:07:00,37.9,32.9,30.11,West,273,0.0,1.0,82,0.00,,---,0.15,VWS V14.01,2013-02-25 21:07:00,
2013-02-25 16:10:00,37.9,32.9,30.11,West,273,0.0,1.0,82,0.00,,---,0.15,VWS V14.01,2013-02-25 21:10:00,
2013-02-25 16:12:00,37.8,32.8,30.11,West,273,0.0,1.0,82,0.00,,---,0.15,VWS V14.01,2013-02-25 21:12:00,
2013-02-25 16:15:00,37.8,32.8,30.11,West,273,0.0,1.0,82,0.00,,---,0.15,VWS V14.01,2013-02-25 21:15:00,
2013-02-25 16:17:00,37.7,33.0,30.11,West,273,0.0,1.0,83,0.00,,---,0.15,VWS V14.01,2013-02-25 21:17:00,
2013-02-25 16:20:00,37.7,32.7,30.11,West,273,0.0,1.0,82,0.00,,---,0.15,VWS V14.01,2013-02-25 21:20:00,
2013-02-25 16:22:00,37.6,32.9,30.11,West,273,1.0,1.0,83,0.00,,---,0.15,VWS V14.01,2013-02-25 21:22:00,
2013-02-25 16:25:00,37.7,33.0,30.11,West,273,0.0,1.0,83,0.00,,---,0.15,VWS V14.01,2013-02-25 21:25:00,
2013-02-25 16:27:00,37.6,32.9,30.11,West,273,0.0,0.0,83,0.00,,---,0.15,VWS V14.01,2013-02-25 21:27:00,
2013-02-25 16:30:00,37.6,32.9,30.11,West,273,0.0,1.0,83,0.00,,---,0.15,VWS V14.01,2013-02-25 21:30:00,
2013-02-25 16:32:00,37.5,32.8,30.11,West,273,0.0,1.0,83,0.00,,---,0.15,VWS V14.01,2013-02-25 21:32:00,
2013-02-25 16:35:00,37.5,32.8,30.11,West,273,0.0,1.0,83,0.00,,---,0.15,VWS V14.01,2013-02-25 21:35:00,
2013-02-25 16:37:00,37.4,32.7,30.11,West,273,0.0,2.0,83,0.00,,---,0.15,VWS V14.01,2013-02-25 21:37:00,
2013-02-25 16:40:00,37.4,32.7,30.11,West,273,0.0,2.0,83,0.00,,---,0.15,VWS V14.01,2013-02-25 21:40:00,
2013-02-25 16:42:00,37.4,33.0,30.12,West,273,0.0,1.0,84,0.00,,---,0.15,VWS V14.01,2013-02-25 21:42:00,
2013-02-25 16:45:00,37.4,33.0,30.12,West,273,0.0,1.0,84,0.00,,---,0.15,VWS V14.01,2013-02-25 21:45:00,
2013-02-25 16:48:00,37.3,32.9,30.11,West,273,0.0,0.0,84,0.00,,---,0.15,VWS V14.01,2013-02-25 21:48:00,
2013-02-25 16:50:00,37.3,32.9,30.11,West,273,0.0,0.0,84,0.00,,---,0.15,VWS V14.01,2013-02-25 21:50:00,
2013-02-25 16:53:00,37.2,32.8,30.11,West,273,0.0,0.0,84,0.00,,---,0.15,VWS V14.01,2013-02-25 21:53:00,
2013-02-25 16:55:00,37.2,32.8,30.11,West,273,0.0,0.0,84,0.00,,---,0.15,VWS V14.01,2013-02-25 21:55:00,
2013-02-25 16:58:00,37.1,33.0,30.12,West,273,0.0,0.0,85,0.00,,---,0.15,VWS V14.01,2013-02-25 21:58:00,
2013-02-25 17:00:00,37.1,33.0,30.12,West,273,0.0,0.0,85,0.00,,---,0.15,VWS V14.01,2013-02-25 22:00:00,
2013-02-25 17:03:00,37.1,33.0,30.12,West,273,0.0,1.0,85,0.00,,---,0.15,VWS V14.01,2013-02-25 22:03:00,
2013-02-25 17:05:00,37.1,33.0,30.12,West,273,0.0,1.0,85,0.00,,---,0.15,VWS V14.01,2013-02-25 22:05:00,
2013-02-25 17:08:00,36.9,32.8,30.12,West,273,0.0,0.0,85,0.00,,---,0.15,VWS V14.01,2013-02-25 22:08:00,
2013-02-25 17:10:00,36.9,32.8,30.12,West,273,0.0,0.0,85,0.00,,---,0.15,VWS V14.01,2013-02-25 22:10:00,
2013-02-25 17:13:00,36.8,33.0,30.12,West,273,0.0,1.0,86,0.00,,---,0.15,VWS V14.01,2013-02-25 22:13:00,
2013-02-25 17:15:00,36.8,33.0,30.12,West,273,0.0,1.0,86,0.00,,---,0.15,VWS V14.01,2013-02-25 22:15:00,
2013-02-25 17:18:00,36.6,32.8,30.12,West,273,0.0,0.0,86,0.00,,---,0.15,VWS V14.01,2013-02-25 22:18:00,
2013-02-25 17:20:00,36.6,32.8,30.12,West,273,0.0,0.0,86,0.00,,---,0.15,VWS V14.01,2013-02-25 22:20:00,
2013-02-25 17:23:00,36.5,33.0,30.13,West,273,0.0,0.0,87,0.00,,---,0.15,VWS V14.01,2013-02-25 22:23:00,
2013-02-25 17:25:00,36.5,33.0,30.13,West,273,0.0,0.0,87,0.00,,---,0.15,VWS V14.01,2013-02-25 22:25:00,
2013-02-25 17:28:00,36.4,32.9,30.13,West,273,0.0,0.0,87,0.00,,---,0.15,VWS V14.01,2013-02-25 22:28:00,
2013-02-25 17:30:00,36.4,32.9,30.13,West,273,0.0,0.0,87,0.00,,---,0.15,VWS V14.01,2013-02-25 22:30:00,
2013-02-25 17:33:00,36.3,32.8,30.13,West,273,0.0,0.0,87,0.00,,---,0.15,VWS V14.01,2013-02-25 22:33:00,
2013-02-25 17:35:00,36.3,32.8,30.13,West,273,0.0,0.0,87,0.00,,---,0.15,VWS V14.01,2013-02-25 22:35:00,
2013-02-25 17:38:00,36.1,32.6,30.13,West,273,0.0,0.0,87,0.00,,---,0.15,VWS V14.01,2013-02-25 22:38:00,
2013-02-25 17:40:00,36.1,32.6,30.13,West,273,0.0,0.0,87,0.00,,---,0.15,VWS V14.01,2013-02-25 22:40:00,
2013-02-25 17:43:00,36.0,32.8,30.13,West,273,0.0,0.0,88,0.00,,---,0.15,VWS V14.01,2013-02-25 22:43:00,
2013-02-25 17:45:00,36.0,32.8,30.13,West,273,0.0,0.0,88,0.00,,---,0.15,VWS V14.01,2013-02-25 22:45:00,
2013-02-25 17:48:00,35.9,32.7,30.13,West,273,0.0,0.0,88,0.00,,---,0.15,VWS V14.01,2013-02-25 22:48:00,
2013-02-25 17:50:00,35.9,32.7,30.13,West,273,0.0,0.0,88,0.00,,---,0.15,VWS V14.01,2013-02-25 22:50:00,
2013-02-25 17:53:00,35.7,32.5,30.13,West,273,0.0,0.0,88,0.00,,---,0.15,VWS V14.01,2013-02-25 22:53:00,
2013-02-25 17:55:00,35.7,32.5,30.13,West,273,0.0,0.0,88,0.00,,---,0.15,VWS V14.01,2013-02-25 22:55:00,
2013-02-25 17:58:00,35.6,32.4,30.13,West,273,0.0,0.0,88,0.00,,---,0.15,VWS V14.01,2013-02-25 22:58:00,
2013-02-25 18:00:00,35.6,32.4,30.13,West,273,0.0,0.0,88,0.00,,---,0.15,VWS V14.01,2013-02-25 23:00:00,
2013-02-25 18:03:00,35.5,32.6,30.13,West,273,0.0,0.0,89,0.00,,---,0.15,VWS V14.01,2013-02-25 23:03:00,
2013-02-25 18:05:00,35.5,32.6,30.13,West,273,0.0,0.0,89,0.00,,---,0.15,VWS V14.01,2013-02-25 23:05:00,
2013-02-25 18:08:00,35.5,32.6,30.13,West,273,0.0,0.0,89,0.00,,---,0.15,VWS V14.01,2013-02-25 23:08:00,
2013-02-25 18:10:00,35.5,32.6,30.13,West,273,0.0,0.0,89,0.00,,---,0.15,VWS V14.01,2013-02-25 23:10:00,
2013-02-25 18:13:00,35.3,32.4,30.13,West,273,0.0,0.0,89,0.00,,---,0.15,VWS V14.01,2013-02-25 23:13:00,
2013-02-25 18:15:00,35.3,32.4,30.13,West,273,0.0,0.0,89,0.00,,---,0.15,VWS V14.01,2013-02-25 23:15:00,
2013-02-25 18:18:00,35.3,32.4,30.13,West,273,0.0,0.0,89,0.00,,---,0.15,VWS V14.01,2013-02-25 23:18:00,
2013-02-25 18:20:00,35.2,32.3,30.13,West,273,0.0,0.0,89,0.00,,---,0.15,VWS V14.01,2013-02-25 23:20:00,
2013-02-25 18:23:00,35.2,32.6,30.13,West,273,0.0,0.0,90,0.00,,---,0.15,VWS V14.01,2013-02-25 23:23:00,
2013-02-25 18:25:00,35.2,32.6,30.13,West,273,0.0,0.0,90,0.00,,---,0.15,VWS V14.01,2013-02-25 23:25:00,
2013-02-25 18:28:00,35.2,32.6,30.14,West,273,0.0,0.0,90,0.00,,---,0.15,VWS V14.01,2013-02-25 23:28:00,
2013-02-25 18:30:00,35.2,32.6,30.14,West,273,0.0,0.0,90,0.00,,---,0.15,VWS V14.01,2013-02-25 23:30:00,
2013-02-25 18:33:00,35.1,32.5,30.13,West,273,0.0,0.0,90,0.00,,---,0.15,VWS V14.01,2013-02-25 23:33:00,
2013-02-25 18:35:00,35.1,32.5,30.14,West,273,0.0,0.0,90,0.00,,---,0.15,VWS V14.01,2013-02-25 23:35:00,
2013-02-25 18:38:00,35.0,32.4,30.14,West,273,0.0,0.0,90,0.00,,---,0.15,VWS V14.01,2013-02-25 23:38:00,
2013-02-25 18:40:00,35.0,32.4,30.14,West,273,0.0,0.0,90,0.00,,---,0.15,VWS V14.01,2013-02-25 23:40:00,
2013-02-25 18:43:00,34.9,32.3,30.14,West,273,0.0,0.0,90,0.00,,---,0.15,VWS V14.01,2013-02-25 23:43:00,
2013-02-25 18:45:00,34.9,32.3,30.14,West,273,0.0,0.0,90,0.00,,---,0.15,VWS V14.01,2013-02-25 23:45:00,
2013-02-25 18:48:00,34.8,32.2,30.14,West,273,0.0,0.0,90,0.00,,---,0.15,VWS V14.01,2013-02-25 23:48:00,
2013-02-25 18:50:00,34.9,32.3,30.14,West,273,0.0,0.0,90,0.00,,---,0.15,VWS V14.01,2013-02-25 23:50:00,
2013-02-25 18:54:00,34.8,32.2,30.14,West,273,0.0,0.0,90,0.00,,---,0.15,VWS V14.01,2013-02-25 23:54:00,
2013-02-25 18:55:00,34.8,32.2,30.14,West,273,0.0,0.0,90,0.00,,---,0.15,VWS V14.01,2013-02-25 23:55:00,
2013-02-25 18:59:00,34.7,32.3,30.15,West,273,0.0,0.0,91,0.00,,---,0.15,VWS V14.01,2013-02-25 23:59:00,
2013-02-25 19:00:00,34.7,32.3,30.15,West,273,0.0,0.0,91,0.00,,---,0.15,VWS V14.01,2013-02-26 00:00:00,
2013-02-25 19:04:00,34.6,32.2,30.15,West,273,0.0,0.0,91,0.00,,---,0.15,VWS V14.01,2013-02-26 00:04:00,
2013-02-25 19:05:00,34.6,32.2,30.15,West,273,0.0,0.0,91,0.00,,---,0.15,VWS V14.01,2013-02-26 00:05:00,
2013-02-25 19:09:00,34.5,32.2,30.16,West,273,0.0,0.0,91,0.00,,---,0.15,VWS V14.01,2013-02-26 00:09:00,
2013-02-25 19:10:00,34.5,32.2,30.16,West,273,0.0,0.0,91,0.00,,---,0.15,VWS V14.01,2013-02-26 00:10:00,
2013-02-25 19:14:00,34.4,32.0,30.16,West,273,0.0,0.0,91,0.00,,---,0.15,VWS V14.01,2013-02-26 00:14:00,
2013-02-25 19:15:00,34.5,32.2,30.16,West,273,0.0,0.0,91,0.00,,---,0.15,VWS V14.01,2013-02-26 00:15:00,
2013-02-25 19:19:00,34.4,32.0,30.16,West,273,0.0,0.0,91,0.00,,---,0.15,VWS V14.01,2013-02-26 00:19:00,
2013-02-25 19:20:00,34.4,32.0,30.16,West,273,0.0,0.0,91,0.00,,---,0.15,VWS V14.01,2013-02-26 00:20:00,
2013-02-25 19:24:00,34.4,32.0,30.16,West,273,0.0,0.0,91,0.00,,---,0.15,VWS V14.01,2013-02-26 00:24:00,
2013-02-25 19:25:00,34.4,32.0,30.16,West,273,0.0,0.0,91,0.00,,---,0.15,VWS V14.01,2013-02-26 00:25:00,
2013-02-25 19:29:00,34.4,32.0,30.16,West,273,0.0,0.0,91,0.00,,---,0.15,VWS V14.01,2013-02-26 00:29:00,
2013-02-25 19:30:00,34.4,32.0,30.16,West,273,0.0,0.0,91,0.00,,---,0.15,VWS V14.01,2013-02-26 00:30:00,
2013-02-25 19:34:00,34.4,32.3,30.16,West,273,0.0,0.0,92,0.00,,---,0.15,VWS V14.01,2013-02-26 00:34:00,
2013-02-25 19:35:00,34.4,32.3,30.16,West,273,0.0,0.0,92,0.00,,---,0.15,VWS V14.01,2013-02-26 00:35:00,
2013-02-25 19:39:00,34.4,32.3,30.17,West,273,0.0,0.0,92,0.00,,---,0.15,VWS V14.01,2013-02-26 00:39:00,
2013-02-25 19:40:00,34.4,32.3,30.17,West,273,0.0,0.0,92,0.00,,---,0.15,VWS V14.01,2013-02-26 00:40:00,
2013-02-25 19:44:00,34.4,32.3,30.17,West,273,1.0,1.0,92,0.00,,---,0.15,VWS V14.01,2013-02-26 00:44:00,
2013-02-25 19:45:00,34.4,32.3,30.17,West,273,0.0,0.0,92,0.00,,---,0.15,VWS V14.01,2013-02-26 00:45:00,
2013-02-25 19:49:00,34.4,32.3,30.17,WSW,241,2.0,2.0,92,0.00,,---,0.15,VWS V14.01,2013-02-26 00:49:00,
2013-02-25 19:50:00,34.4,32.3,30.17,WSW,241,1.0,3.0,92,0.00,,---,0.15,VWS V14.01,2013-02-26 00:50:00,
2013-02-25 19:54:00,34.4,32.3,30.17,SW,229,1.0,1.0,92,0.00,,---,0.15,VWS V14.01,2013-02-26 00:54:00,
2013-02-25 19:55:00,34.4,32.3,30.17,SW,229,1.0,2.0,92,0.00,,---,0.15,VWS V14.01,2013-02-26 00:55:00,
2013-02-25 19:59:00,34.4,32.3,30.17,SW,229,0.0,0.0,92,0.00,,---,0.15,VWS V14.01,2013-02-26 00:59:00,
2013-02-25 20:00:00,34.4,32.3,30.17,SW,229,0.0,1.0,92,0.00,,---,0.15,VWS V14.01,2013-02-26 01:00:00,
2013-02-25 20:04:00,34.5,32.4,30.17,SW,229,1.0,1.0,92,0.00,,---,0.15,VWS V14.01,2013-02-26 01:04:00,
2013-02-25 20:05:00,34.5,32.4,30.17,SW,229,0.0,0.0,92,0.00,,---,0.15,VWS V14.01,2013-02-26 01:05:00,
2013-02-25 20:09:00,34.6,32.5,30.17,SW,229,0.0,0.0,92,0.00,,---,0.15,VWS V14.01,2013-02-26 01:09:00,
2013-02-25 20:10:00,34.6,32.5,30.17,SW,229,0.0,1.0,92,0.00,,---,0.15,VWS V14.01,2013-02-26 01:10:00,
2013-02-25 20:14:00,34.6,32.5,30.17,SW,229,0.0,0.0,92,0.00,,---,0.15,VWS V14.01,2013-02-26 01:14:00,
2013-02-25 20:15:00,34.6,32.5,30.17,SW,229,0.0,0.0,92,0.00,,---,0.15,VWS V14.01,2013-02-26 01:15:00,
2013-02-25 20:19:00,34.5,32.4,30.17,SW,229,0.0,0.0,92,0.00,,---,0.15,VWS V14.01,2013-02-26 01:19:00,
2013-02-25 20:20:00,34.5,32.4,30.17,SW,229,0.0,0.0,92,0.00,,---,0.15,VWS V14.01,2013-02-26 01:20:00,
2013-02-25 20:24:00,34.5,32.4,30.17,SW,229,0.0,0.0,92,0.00,,---,0.15,VWS V14.01,2013-02-26 01:24:00,
2013-02-25 20:25:00,34.5,32.4,30.17,SW,229,0.0,0.0,92,0.00,,---,0.15,VWS V14.01,2013-02-26 01:25:00,
2013-02-25 20:30:00,34.5,32.4,30.17,SW,229,0.0,0.0,92,0.00,,---,0.15,VWS V14.01,2013-02-26 01:30:00,
2013-02-25 20:35:00,34.4,32.3,30.17,SW,229,0.0,0.0,92,0.00,,---,0.15,VWS V14.01,2013-02-26 01:35:00,
2013-02-25 20:40:00,34.4,32.3,30.17,SW,229,0.0,0.0,92,0.00,,---,0.15,VWS V14.01,2013-02-26 01:40:00,
2013-02-25 20:45:00,34.4,32.6,30.17,SW,229,0.0,0.0,93,0.00,,---,0.15,VWS V14.01,2013-02-26 01:45:00,
2013-02-25 20:50:00,34.4,32.6,30.17,SW,229,0.0,0.0,93,0.00,,---,0.15,VWS V14.01,2013-02-26 01:50:00,
2013-02-25 20:55:00,34.4,32.6,30.17,SW,229,0.0,0.0,93,0.00,,---,0.15,VWS V14.01,2013-02-26 01:55:00,
2013-02-25 21:00:00,34.3,32.5,30.18,SW,229,0.0,0.0,93,0.00,,---,0.15,VWS V14.01,2013-02-26 02:00:00,
2013-02-25 21:05:00,34.2,32.4,30.18,SW,229,0.0,0.0,93,0.00,,---,0.15,VWS V14.01,2013-02-26 02:05:00,
2013-02-25 21:10:00,34.1,32.3,30.18,SW,229,0.0,0.0,93,0.00,,---,0.15,VWS V14.01,2013-02-26 02:10:00,
2013-02-25 21:15:00,34.1,32.3,30.17,SW,229,0.0,0.0,93,0.00,,---,0.15,VWS V14.01,2013-02-26 02:15:00,
2013-02-25 21:20:00,34.1,32.3,30.17,SW,229,0.0,0.0,93,0.00,,---,0.15,VWS V14.01,2013-02-26 02:20:00,
2013-02-25 21:21:00,34.1,32.3,30.17,SW,229,0.0,0.0,93,0.00,,---,0.15,VWS V14.01,2013-02-26 02:21:00,
2013-02-25 21:25:00,34.1,32.3,30.18,SW,229,0.0,0.0,93,0.00,,---,0.15,VWS V14.01,2013-02-26 02:25:00,
2013-02-25 21:26:00,34.1,32.3,30.17,SW,229,0.0,0.0,93,0.00,,---,0.15,VWS V14.01,2013-02-26 02:26:00,
2013-02-25 21:30:00,34.0,32.2,30.17,SW,229,0.0,0.0,93,0.00,,---,0.15,VWS V14.01,2013-02-26 02:30:00,
2013-02-25 21:31:00,34.0,32.2,30.17,SW,229,0.0,0.0,93,0.00,,---,0.15,VWS V14.01,2013-02-26 02:31:00,
2013-02-25 21:35:00,34.0,32.2,30.17,SW,229,0.0,0.0,93,0.00,,---,0.15,VWS V14.01,2013-02-26 02:35:00,
2013-02-25 21:36:00,33.9,32.1,30.17,SW,229,0.0,0.0,93,0.00,,---,0.15,VWS V14.01,2013-02-26 02:36:00,
2013-02-25 21:40:00,33.9,32.1,30.17,SW,229,0.0,0.0,93,0.00,,---,0.15,VWS V14.01,2013-02-26 02:40:00,
2013-02-25 21:41:00,33.8,32.0,30.17,SW,229,0.0,0.0,93,0.00,,---,0.15,VWS V14.01,2013-02-26 02:41:00,
2013-02-25 21:45:00,33.8,33.5,30.17,SW,229,0.0,0.0,99,0.00,,---,0.15,VWS V14.01,2013-02-26 02:45:00,
2013-02-25 21:46:00,33.7,31.9,30.17,SW,229,0.0,0.0,93,0.00,,---,0.15,VWS V14.01,2013-02-26 02:46:00,
2013-02-25 21:50:00,33.7,31.9,30.17,SW,229,0.0,0.0,93,0.00,,---,0.15,VWS V14.01,2013-02-26 02:50:00,
2013-02-25 21:51:00,33.6,31.8,30.17,SW,229,0.0,0.0,93,0.00,,---,0.15,VWS V14.01,2013-02-26 02:51:00,
2013-02-25 21:55:00,33.6,31.8,30.17,SW,229,0.0,0.0,93,0.00,,---,0.15,VWS V14.01,2013-02-26 02:55:00,
2013-02-25 21:56:00,33.5,31.7,30.17,SW,229,0.0,0.0,93,0.00,,---,0.15,VWS V14.01,2013-02-26 02:56:00,
2013-02-25 22:00:00,33.5,31.7,30.17,SW,229,0.0,0.0,93,0.00,,---,0.15,VWS V14.01,2013-02-26 03:00:00,
2013-02-25 22:01:00,33.5,31.7,30.17,SW,229,0.0,0.0,93,0.00,,---,0.15,VWS V14.01,2013-02-26 03:01:00,
2013-02-25 22:05:00,33.5,31.7,30.17,SW,229,0.0,0.0,93,0.00,,---,0.15,VWS V14.01,2013-02-26 03:05:00,
2013-02-25 22:06:00,33.4,31.6,30.17,SW,229,1.0,2.0,93,0.00,,---,0.15,VWS V14.01,2013-02-26 03:06:00,
2013-02-25 22:10:00,33.4,31.6,30.17,SW,229,0.0,2.0,93,0.00,,---,0.15,VWS V14.01,2013-02-26 03:10:00,
2013-02-25 22:11:00,33.4,31.6,30.17,SW,229,0.0,0.0,93,0.00,,---,0.15,VWS V14.01,2013-02-26 03:11:00,
2013-02-25 22:15:00,33.3,31.5,30.17,SW,229,0.0,0.0,93,0.00,,---,0.15,VWS V14.01,2013-02-26 03:15:00,
2013-02-25 22:16:00,33.3,31.5,30.17,SW,229,0.0,0.0,93,0.00,,---,0.15,VWS V14.01,2013-02-26 03:16:00,
2013-02-25 22:20:00,33.3,31.5,30.17,SW,229,0.0,0.0,93,0.00,,---,0.15,VWS V14.01,2013-02-26 03:20:00,
2013-02-25 22:21:00,33.2,31.4,30.17,SW,229,0.0,0.0,93,0.00,,---,0.15,VWS V14.01,2013-02-26 03:21:00,
2013-02-25 22:25:00,33.2,31.4,30.18,SW,229,0.0,0.0,93,0.00,,---,0.15,VWS V14.01,2013-02-26 03:25:00,
2013-02-25 22:26:00,33.1,31.3,30.17,SW,229,0.0,0.0,93,0.00,,---,0.15,VWS V14.01,2013-02-26 03:26:00,
2013-02-25 22:30:00,33.1,31.3,30.17,SW,229,0.0,0.0,93,0.00,,---,0.15,VWS V14.01,2013-02-26 03:30:00,
2013-02-25 22:32:00,32.9,31.1,30.17,SW,229,0.0,0.0,93,0.00,,---,0.15,VWS V14.01,2013-02-26 03:32:00,
2013-02-25 22:35:00,32.9,31.1,30.17,SW,229,0.0,0.0,93,0.00,,---,0.15,VWS V14.01,2013-02-26 03:35:00,
2013-02-25 22:37:00,32.7,30.9,30.17,SW,229,0.0,0.0,93,0.00,,---,0.15,VWS V14.01,2013-02-26 03:37:00,
2013-02-25 22:40:00,32.7,30.9,30.17,SW,229,0.0,0.0,93,0.00,,---,0.15,VWS V14.01,2013-02-26 03:40:00,
2013-02-25 22:42:00,32.5,30.7,30.17,SW,229,0.0,0.0,93,0.00,,---,0.15,VWS V14.01,2013-02-26 03:42:00,
2013-02-25 22:45:00,32.5,30.7,30.17,SW,229,0.0,0.0,93,0.00,,---,0.15,VWS V14.01,2013-02-26 03:45:00,
2013-02-25 22:47:00,32.4,30.6,30.17,SW,229,0.0,0.0,93,0.00,,---,0.15,VWS V14.01,2013-02-26 03:47:00,
2013-02-25 22:50:00,32.3,30.5,30.17,SW,229,0.0,0.0,93,0.00,,---,0.15,VWS V14.01,2013-02-26 03:50:00,
2013-02-25 22:52:00,32.2,30.4,30.17,SW,229,0.0,0.0,93,0.00,,---,0.15,VWS V14.01,2013-02-26 03:52:00,
2013-02-25 22:55:00,32.1,30.3,30.17,SW,229,0.0,0.0,93,0.00,,---,0.15,VWS V14.01,2013-02-26 03:55:00,
2013-02-25 22:57:00,32.0,30.2,30.18,SW,229,0.0,0.0,93,0.00,,---,0.15,VWS V14.01,2013-02-26 03:57:00,
2013-02-25 23:00:00,32.0,30.2,30.18,SW,229,0.0,0.0,93,0.00,,---,0.15,VWS V14.01,2013-02-26 04:00:00,
2013-02-25 23:02:00,31.9,30.1,30.17,SW,229,0.0,0.0,93,0.00,,---,0.15,VWS V14.01,2013-02-26 04:02:00,
2013-02-25 23:05:00,31.9,30.1,30.18,SW,229,0.0,0.0,93,0.00,,---,0.15,VWS V14.01,2013-02-26 04:05:00,
2013-02-25 23:07:00,31.7,29.9,30.18,SW,229,0.0,0.0,93,0.00,,---,0.15,VWS V14.01,2013-02-26 04:07:00,
2013-02-25 23:10:00,31.7,29.9,30.18,SW,229,0.0,0.0,93,0.00,,---,0.15,VWS V14.01,2013-02-26 04:10:00,
2013-02-25 23:12:00,31.6,29.8,30.18,SW,229,0.0,0.0,93,0.00,,---,0.15,VWS V14.01,2013-02-26 04:12:00,
2013-02-25 23:15:00,31.6,29.8,30.18,SW,229,0.0,0.0,93,0.00,,---,0.15,VWS V14.01,2013-02-26 04:15:00,
2013-02-25 23:17:00,31.5,29.7,30.18,SW,229,0.0,0.0,93,0.00,,---,0.15,VWS V14.01,2013-02-26 04:17:00,
2013-02-25 23:20:00,31.5,29.7,30.18,SW,229,0.0,0.0,93,0.00,,---,0.15,VWS V14.01,2013-02-26 04:20:00,
2013-02-25 23:22:00,31.4,29.6,30.18,SW,229,0.0,0.0,93,0.00,,---,0.15,VWS V14.01,2013-02-26 04:22:00,
2013-02-25 23:25:00,31.4,29.6,30.18,SW,229,0.0,0.0,93,0.00,,---,0.15,VWS V14.01,2013-02-26 04:25:00,
2013-02-25 23:27:00,31.3,29.5,30.19,SW,229,0.0,0.0,93,0.00,,---,0.15,VWS V14.01,2013-02-26 04:27:00,
2013-02-25 23:30:00,31.3,29.5,30.19,SW,229,0.0,0.0,93,0.00,,---,0.15,VWS V14.01,2013-02-26 04:30:00,
2013-02-25 23:33:00,31.2,29.7,30.19,SW,229,0.0,0.0,94,0.00,,---,0.15,VWS V14.01,2013-02-26 04:33:00,
2013-02-25 23:35:00,31.2,29.7,30.19,SW,229,0.0,0.0,94,0.00,,---,0.15,VWS V14.01,2013-02-26 04:35:00,
2013-02-25 23:38:00,31.1,29.3,30.20,SW,229,0.0,0.0,93,0.00,,---,0.15,VWS V14.01,2013-02-26 04:38:00,
2013-02-25 23:40:00,31.1,29.3,30.20,SW,229,0.0,0.0,93,0.00,,---,0.15,VWS V14.01,2013-02-26 04:40:00,
2013-02-25 23:43:00,31.1,29.6,30.20,SW,229,0.0,0.0,94,0.00,,---,0.15,VWS V14.01,2013-02-26 04:43:00,
2013-02-25 23:45:00,31.0,29.5,30.20,SW,229,0.0,0.0,94,0.00,,---,0.15,VWS V14.01,2013-02-26 04:45:00,
2013-02-25 23:48:00,31.0,29.5,30.19,SW,229,0.0,0.0,94,0.00,,---,0.15,VWS V14.01,2013-02-26 04:48:00,
2013-02-25 23:50:00,31.0,29.5,30.19,SW,229,0.0,0.0,94,0.00,,---,0.15,VWS V14.01,2013-02-26 04:50:00,
2013-02-25 23:53:00,31.0,29.5,30.19,SW,229,0.0,0.0,94,0.00,,---,0.15,VWS V14.01,2013-02-26 04:53:00,
2013-02-25 23:55:00,31.0,29.5,30.19,SW,229,0.0,0.0,94,0.00,,---,0.15,VWS V14.01,2013-02-26 04:55:00,
2013-02-25 23:58:00,30.9,29.4,30.20,SW,229,0.0,0.0,94,0.00,,---,0.00,VWS V14.01,2013-02-26 04:58:00,